SCP
0 0 0 0 0 0 0 0 0 0 0 0 0 1 1 1 1 1 1 1 0 0 0 0 1 1 1 1 1 1 1 1 0 0 0 1 1 1 1 0 0 0 0 0
0 0 0 0 0 0 0 0 0 0 0 0 0 0 1 1 1 1 1 1 0 0 0 0 1 1 1 1 1 1 1 1 1 1 1 1 1 1 1 0 0 0 0 0
0 0 0 0 0 0 0 0 0 0 0 1 0 0 1 1 1 1 1 1 0 0 0 1 1 1 1 1 1 1 1 1 1 1 1 1 1 1 1 1 1 0 0 0
0 0 0 0 0 0 0 0 0 0 1 1 1 0 0 1 1 1 1 0 0 0 0 0 1 1 1 1 1 1 1 1 1 1 2 2 1 1 1 1 0 0 0 0
0 0 0 0 0 1 1 0 0 0 1 1 1 0 0 1 1 1 1 1 0 0 0 0 1 1 1 1 1 1 1 1 1 1 2 2 1 1 1 0 0 0 0 0
0 0 0 0 1 1 1 0 0 0 1 1 0 0 0 0 1 1 1 1 1 0 0 0 1 1 1 1 1 1 1 1 1 2 2 2 1 1 1 1 0 0 0 0
0 0 0 0 1 1 1 0 0 0 0 0 0 0 0 0 0 1 1 1 1 1 1 1 1 1 1 1 1 1 1 1 1 2 1 1 1 1 1 1 1 1 1 0
0 0 0 0 0 1 1 0 0 0 0 0 0 0 0 0 0 0 1 1 1 1 1 1 1 1 2 1 1 1 1 1 1 1 1 1 1 1 1 1 1 1 1 1
0 0 0 0 0 0 1 0 0 0 0 0 0 0 0 0 0 0 0 1 1 1 1 1 1 1 2 1 1 1 1 1 1 1 1 1 1 1 1 1 1 1 1 1
0 0 0 0 0 0 0 0 0 0 0 0 0 0 0 0 0 0 0 0 1 1 2 1 1 1 1 1 1 1 1 1 1 1 1 1 1 1 1 1 1 1 1 1
0 0 0 1 1 0 0 0 0 0 0 0 0 0 0 0 0 0 0 0 1 1 2 1 1 1 1 1 1 1 1 1 1 1 1 1 1 1 1 1 1 1 1 1
0 0 0 0 1 0 0 0 0 0 0 0 0 0 0 0 0 0 0 0 1 1 1 1 0 0 1 1 1 1 0 0 1 1 1 1 1 1 1 1 1 1 1 1
0 0 0 0 1 0 0 0 0 0 0 0 0 0 0 0 0 0 0 0 0 0 0 0 0 0 0 1 1 1 1 1 1 1 1 1 1 1 1 1 1 1 1 1
0 0 0 0 0 0 0 0 0 0 0 0 0 0 0 0 0 0 0 0 0 0 0 0 0 0 0 1 1 1 1 1 1 1 1 1 1 1 1 1 1 1 1 1
0 0 0 0 0 0 0 0 0 0 0 0 0 0 0 0 0 0 0 0 0 0 0 0 0 0 0 1 1 1 1 1 1 1 1 1 1 1 1 1 1 1 1 1
0 0 0 0 0 0 0 0 0 0 0 0 0 0 0 0 0 0 0 0 0 0 0 0 0 0 0 0 0 1 1 1 1 1 1 1 1 1 1 1 1 1 1 1
1 0 0 0 0 0 0 0 0 0 0 0 0 0 0 0 0 0 0 0 0 0 0 0 0 0 0 0 0 0 1 1 1 1 1 1 1 1 1 1 1 1 1 1
0 0 0 0 0 0 0 0 0 0 0 0 0 0 0 0 0 0 0 0 0 0 0 0 0 0 0 0 0 0 1 1 1 1 1 1 1 1 1 1 1 1 1 1
0 0 0 0 0 0 0 0 0 0 0 0 0 0 0 0 0 0 0 0 0 0 0 0 0 0 0 0 0 0 0 1 1 1 1 1 1 1 1 1 2 2 1 1
0 0 0 0 0 0 0 0 0 0 0 0 0 0 0 0 0 0 0 0 0 0 0 0 0 0 0 0 0 0 0 1 1 1 1 1 1 1 1 2 2 2 2 2
0 0 0 0 0 0 0 0 0 0 0 0 0 0 0 0 0 0 0 0 0 0 0 0 0 0 0 0 0 0 0 1 1 1 1 1 1 1 2 2 2 2 2 2
0 0 0 0 0 0 0 0 0 0 0 0 0 0 0 0 0 0 0 0 0 0 0 0 0 0 0 0 0 0 0 0 0 1 1 1 1 1 1 2 2 2 2 2
0 0 0 0 0 0 0 0 0 0 0 0 0 0 0 0 0 0 0 0 0 0 0 0 0 0 0 0 0 0 0 0 0 0 1 1 1 1 1 2 2 2 2 2
0 0 0 0 0 0 0 0 0 0 0 0 0 0 0 0 0 0 0 0 0 0 0 0 0 0 0 0 0 0 0 0 0 0 0 1 1 1 2 2 2 2 2 2
0 0 0 0 0 0 0 0 0 0 0 0 0 0 0 0 0 0 0 0 0 0 0 0 0 0 0 0 0 0 0 0 0 0 0 0 1 1 2 2 2 2 2 2
0 0 0 0 0 0 0 0 0 0 0 0 0 0 0 0 0 0 0 0 0 0 0 0 0 0 0 0 0 0 0 0 0 0 0 0 0 1 2 2 2 2 2 2
Wind_Speed
3 5 5 5 4 3 4 5 5 3 2 5 5 4 4 4 5 5 4 4 5 5 4 4 5 5 6 6 6 5 5 5 4 3 2 2 1 1 1 1 1 1 0 0
5 5 2 2 3 4 6 7 5 2 2 5 5 5 4 4 4 3 3 3 4 4 4 5 5 6 6 6 6 6 5 5 4 3 2 2 1 1 1 1 1 1 0 0
5 1 2 4 5 5 6 7 5 3 3 5 5 7 7 5 4 3 3 3 3 3 4 4 5 6 6 6 6 5 5 5 5 4 3 2 2 2 2 2 1 1 1 1
3 2 4 5 4 5 5 3 4 5 6 4 5 5 5 6 5 5 4 4 3 3 3 4 4 5 5 6 5 6 6 5 5 5 4 4 3 2 2 2 2 2 1 1
4 3 4 5 3 5 2 1 4 6 7 7 6 8 3 5 6 5 5 4 3 2 3 3 4 4 4 5 5 5 6 6 5 5 5 5 4 2 2 1 2 2 2 1
2 2 3 2 1 2 3 4 4 5 6 8 6 8 4 3 4 4 4 4 3 3 2 2 3 3 3 3 4 5 5 5 5 5 6 5 5 4 3 3 2 2 1 1
4 4 2 2 3 4 5 5 4 6 6 5 2 6 3 2 0 2 3 4 4 3 3 3 3 3 3 3 4 5 5 5 5 6 6 6 5 5 4 3 3 2 2 1
5 5 4 3 3 3 5 7 5 4 4 2 4 6 1 2 0 1 2 3 4 4 3 3 2 2 3 3 3 4 5 5 6 6 5 5 5 4 3 4 3 3 2 2
3 3 2 1 2 4 5 5 4 6 5 6 5 3 3 3 2 2 3 3 4 4 4 3 3 2 2 2 3 3 5 5 5 6 5 5 4 4 3 3 3 2 2 2
2 3 3 2 3 1 3 3 4 6 5 6 5 6 3 4 4 4 4 4 4 3 3 3 3 2 2 2 2 3 3 4 5 4 4 3 4 4 4 3 3 2 2 2
3 4 4 5 6 4 4 5 6 5 6 6 5 2 1 2 3 3 3 3 3 4 4 3 3 3 2 2 2 2 3 2 3 4 3 3 3 3 4 3 3 3 2 2
3 4 5 4 1 3 5 5 6 6 5 6 6 1 3 1 2 3 3 3 2 3 4 4 3 3 3 3 3 2 2 2 2 2 3 3 3 3 4 4 3 3 3 2
3 5 5 5 6 5 5 5 6 6 6 7 8 3 4 0 1 2 3 2 2 3 4 4 4 3 3 3 3 3 2 2 2 1 2 3 3 3 3 3 3 3 3 3
4 6 7 7 4 4 7 7 8 8 8 9 10 8 4 3 4 3 3 3 3 3 3 4 4 3 3 3 3 3 3 2 2 2 2 2 3 3 3 3 3 3 3 3
5 7 7 8 6 7 9 9 10 12 11 11 10 10 8 6 5 5 4 4 4 4 3 3 3 3 3 4 4 3 3 3 2 2 2 1 2 2 2 2 3 3 2 3
5 6 6 8 6 8 10 10 10 11 11 12 12 11 7 6 5 5 5 4 5 4 4 4 4 3 4 4 3 3 3 3 3 3 2 1 1 2 2 2 2 3 2 3
5 6 6 7 5 8 10 9 9 9 9 9 10 8 5 5 5 5 5 5 5 5 4 4 4 4 3 3 3 3 3 3 3 3 2 2 1 2 2 2 2 3 3 2
7 7 5 6 6 9 2 1 5 8 9 9 9 7 6 6 6 5 4 5 5 4 4 4 4 3 3 3 3 3 3 3 3 3 3 2 2 2 2 2 2 3 3 2
7 7 5 5 7 8 3 3 4 7 9 8 9 8 7 4 5 4 3 4 5 5 4 3 3 3 3 3 3 3 3 3 3 3 3 3 2 2 2 2 2 2 2 2
5 6 6 6 8 7 2 1 2 6 8 4 7 7 6 4 6 4 2 4 4 3 3 2 2 3 3 3 3 3 3 3 3 3 3 2 2 2 2 2 2 2 2 2
5 6 8 9 9 7 1 0 3 6 3 3 4 5 6 7 6 4 2 3 3 3 3 3 3 3 3 3 3 3 3 2 2 2 2 2 2 2 2 2 2 2 2 2
6 5 7 7 8 5 2 2 5 5 6 5 5 5 6 6 5 4 3 3 3 2 2 3 3 3 3 3 4 3 2 1 1 2 2 2 2 2 2 3 3 3 3 3
6 6 4 6 5 4 3 6 6 7 7 6 5 5 5 5 5 4 3 3 3 2 2 3 3 3 3 3 3 3 2 1 2 2 2 3 3 3 3 3 3 3 3 3
4 4 6 7 8 7 7 8 7 7 8 7 6 5 5 6 5 4 4 3 3 3 3 4 4 4 3 3 3 3 2 2 3 3 3 3 3 3 3 2 3 3 3 3
5 4 6 9 8 7 6 6 7 7 6 6 5 5 5 5 5 5 4 4 4 3 3 4 4 4 3 3 3 3 3 3 4 4 3 3 2 3 3 3 2 3 3 3
4 5 6 7 7 7 7 6 6 5 5 5 5 5 5 5 5 5 4 4 4 4 4 4 5 4 4 3 3 3 3 4 4 3 3 3 2 3 3 3 3 2 3 3
Wind_Direction
182 207 206 203 224 264 236 230 231 227 210 230 235 234 226 201 203 207 205 207 208 203 183 177 185 189 188 189 190 181 182 179 173 170 177 176 170 166 147 117 94 86 337 106
191 207 207 194 203 222 229 233 232 216 201 240 239 240 223 198 201 213 218 213 210 196 182 180 189 189 196 193 196 189 188 184 180 179 184 189 186 196 175 171 174 193 210 304
214 135 157 187 190 216 230 240 240 240 221 220 243 231 207 185 188 198 220 224 211 205 201 189 192 193 196 198 196 197 192 188 185 179 181 182 172 184 176 180 184 211 239 239
206 168 187 204 210 237 237 241 237 229 237 228 243 257 200 188 193 203 208 212 213 208 209 194 194 198 199 201 198 200 195 195 189 185 192 196 199 201 204 193 186 193 203 222
188 186 205 222 228 242 257 226 225 236 251 253 234 257 209 186 209 209 207 208 202 198 204 198 199 202 201 194 194 199 194 194 194 195 193 207 211 215 202 198 199 199 182 208
193 188 232 235 219 212 172 188 196 224 244 246 235 248 238 189 218 209 195 190 181 174 175 177 185 190 192 186 189 193 197 192 192 197 200 205 209 210 202 205 202 205 184 204
193 184 177 193 186 171 204 219 221 219 220 235 191 244 251 98 162 227 207 187 174 160 160 154 159 179 192 190 191 196 196 193 189 197 204 206 212 213 212 210 204 208 199 201
211 192 172 196 233 218 213 235 253 261 254 240 210 240 167 104 94 234 210 182 173 163 162 156 160 178 188 190 194 200 195 193 191 199 204 207 209 216 220 220 213 210 215 216
225 192 140 203 261 244 214 225 278 281 269 262 228 220 214 172 196 190 185 179 176 171 165 164 164 168 177 187 195 205 197 191 193 199 202 206 206 208 214 214 211 208 211 213
258 225 186 172 193 182 267 232 227 243 256 254 244 235 222 182 200 197 200 198 185 173 171 166 163 166 181 192 193 193 201 195 189 197 199 202 209 207 209 206 200 197 201 202
246 232 191 198 216 212 197 211 235 245 262 270 266 218 87 200 212 220 216 212 203 192 180 176 177 173 174 180 184 185 183 185 193 196 193 195 201 204 199 198 197 198 205 209
231 250 222 216 228 265 236 234 234 246 242 254 275 276 96 251 238 238 238 226 222 204 188 182 184 188 187 183 182 189 180 176 185 199 193 194 192 201 202 201 201 201 206 212
206 235 221 193 178 185 216 219 235 257 259 248 254 248 106 161 247 240 241 242 236 205 197 190 186 198 200 193 182 182 185 178 172 183 200 196 195 199 204 207 206 208 212 217
238 239 246 251 264 224 232 230 232 237 247 253 255 273 263 266 267 261 250 249 244 216 200 193 191 197 200 201 194 186 181 180 173 174 197 205 203 205 210 205 211 218 222 227
241 246 251 264 268 247 246 240 232 237 250 260 268 272 278 281 273 261 248 242 236 222 208 198 200 200 202 200 194 188 180 177 178 179 189 204 219 210 211 205 212 219 230 236
236 246 251 249 242 250 250 243 235 241 252 257 267 271 277 282 270 250 242 234 232 228 224 216 214 208 209 203 195 185 182 177 179 183 185 181 219 215 217 216 219 219 228 239
220 237 250 251 248 255 243 232 228 233 238 249 256 265 274 271 267 253 243 239 238 235 234 229 223 214 212 204 195 193 184 179 183 185 185 190 203 219 224 220 219 225 226 232
232 234 248 259 250 244 244 183 236 246 248 247 258 266 265 270 275 264 253 247 245 244 242 239 228 212 208 195 187 185 187 184 190 194 189 194 203 218 229 228 232 240 240 227
236 232 238 245 251 260 243 217 227 246 258 247 251 263 272 286 273 251 245 245 251 249 246 236 224 208 199 189 182 184 187 187 192 200 205 200 206 209 220 229 244 245 250 247
203 228 237 239 251 256 255 110 274 257 257 243 257 262 260 254 262 270 251 249 251 244 238 224 207 196 189 181 181 191 191 193 197 203 216 215 212 211 218 230 243 246 244 252
198 212 228 240 249 261 329 104 217 240 295 345 283 269 256 255 280 313 259 240 236 232 227 208 200 194 187 180 193 200 199 203 201 209 219 226 221 224 227 229 237 241 240 250
220 218 223 230 240 248 105 192 234 289 325 308 287 275 263 268 285 283 256 236 228 219 216 206 199 189 181 186 201 207 206 200 199 206 210 218 218 221 227 227 236 242 241 244
233 242 247 239 259 314 250 265 283 302 298 300 287 278 266 266 270 271 258 246 238 231 224 210 201 191 187 193 207 215 201 194 205 210 215 217 217 216 226 231 233 233 235 242
238 258 253 258 263 274 272 272 278 282 285 293 288 273 258 257 261 259 248 238 234 227 220 208 199 199 199 201 210 218 197 206 215 220 221 225 225 224 227 235 240 239 239 243
260 245 254 261 276 288 273 274 286 289 287 289 286 276 267 263 256 248 238 233 231 224 220 213 209 207 206 203 208 209 204 213 224 227 224 228 235 237 237 234 246 251 250 258
242 242 253 271 293 289 293 302 297 286 285 288 286 280 271 262 258 255 248 243 236 227 222 214 209 210 212 208 207 206 211 219 227 230 231 230 230 233 236 238 238 225 244 247